Location: Bratislava
(48.1500°N, 17.1170°E)
Time: 07:12:44
(UTC+01:00)

ISS - Pass Details

Date: 26 February 2019
Orbit: 406 x 411 km, 51.6° (Epoch: 23 March)

Event Time Altitude Azimuth Distance (km) Brightness Sun altitude
Exits shadow 05:34:03 - 221° (SW) 1,537 -1.3 -11.6°
Reaches altitude 10° 05:34:15 10° 220° (SW) 1,460 -1.4 -11.6°
Maximum altitude 05:37:22 42° 148° (SSE) 592 -2.7 -11.1°
Drops below altitude 10° 05:40:30 10° 76° (ENE) 1,469 0.4 -10.6°
Sets 05:42:38 0° 69° (ENE) 2,333 1.4 -10.2°
